When you browse on this site, cookies collect data to enhance your experience and personalize the content and advertising you see.
Visit our Privacy Policy to learn more. By continuing to use the site, you agree to this use of cookies and data.
  • en France
  • Liste des pays
  • À 7 jours
  • Température de l'eau
  • Carte satellitaire
  • Carte météo
  • Widgets météo
  • user-avatar
    Se connecter

    Météo par heure à Newcastle

    Ce jour, 17 Juin, Lundi

    Heure Température Précipitation Vent Pression Humidité
    00:00 +11°C° 0.5 mm 4 m/s 762 mmHg 92%
    01:00 +11°C° 0.5 mm 4 m/s 762 mmHg 96%
    02:00 +10°C° 0.4 mm 4 m/s 762 mmHg 96%
    03:00 +9°C° 0.4 mm 5 m/s 762 mmHg 96%
    04:00 +9°C° 0 mm 5 m/s 761 mmHg 95%
    05:00 +9°C° 0.1 mm 5 m/s 762 mmHg 94%
    06:00 +9°C° 0.1 mm 5 m/s 762 mmHg 94%
    07:00 +9°C° 0.1 mm 5 m/s 762 mmHg 94%
    08:00 +10°C° 0.1 mm 5 m/s 762 mmHg 89%
    09:00 +12°C° 0.1 mm 5 m/s 762 mmHg 85%
    10:00 +14°C° 0.1 mm 6 m/s 762 mmHg 81%
    11:00 +14°C° 0.4 mm 5 m/s 762 mmHg 80%
    12:00 +15°C° 0.4 mm 4 m/s 762 mmHg 79%
    13:00 +15°C° 0.4 mm 4 m/s 762 mmHg 79%
    14:00 +15°C° 0.8 mm 4 m/s 762 mmHg 82%
    15:00 +15°C° 0.8 mm 5 m/s 762 mmHg 84%
    16:00 +15°C° 0.8 mm 5 m/s 762 mmHg 87%
    17:00 +14°C° 0.6 mm 5 m/s 762 mmHg 89%
    18:00 +14°C° 0.6 mm 5 m/s 763 mmHg 91%
    19:00 +13°C° 0.6 mm 5 m/s 763 mmHg 93%
    20:00 +13°C° 0.1 mm 4 m/s 764 mmHg 93%
    21:00 +12°C° 0.1 mm 4 m/s 764 mmHg 93%
    22:00 +12°C° 0.1 mm 4 m/s 764 mmHg 94%
    23:00 +12°C° 0.2 mm 4 m/s 763 mmHg 94%

    Demain, 18 Juin, Mardi

    Heure Température Précipitation Vent Pression Humidité
    00:00 +12°C° 0.2 mm 4 m/s 763 mmHg 95%
    01:00 +11°C° 0.2 mm 3 m/s 763 mmHg 95%
    02:00 +11°C° 0.1 mm 3 m/s 763 mmHg 95%
    03:00 +12°C° 0.1 mm 3 m/s 763 mmHg 94%
    04:00 +12°C° 0.1 mm 3 m/s 763 mmHg 94%
    05:00 +12°C° 0.1 mm 3 m/s 763 mmHg 94%
    06:00 +11°C° 0.1 mm 3 m/s 763 mmHg 94%
    07:00 +11°C° 0.1 mm 4 m/s 763 mmHg 94%
    08:00 +12°C° 0 mm 3 m/s 763 mmHg 89%
    09:00 +14°C° 0 mm 3 m/s 763 mmHg 85%
    10:00 +16°C° 0 mm 3 m/s 763 mmHg 80%
    11:00 +17°C° 0 mm 3 m/s 762 mmHg 74%
    12:00 +19°C° 0 mm 2 m/s 762 mmHg 67%
    13:00 +20°C° 0 mm 2 m/s 761 mmHg 61%
    14:00 +20°C° 0 mm 1 m/s 761 mmHg 64%
    15:00 +20°C° 0 mm 1 m/s 761 mmHg 67%
    16:00 +19°C° 0 mm 1 m/s 761 mmHg 71%
    17:00 +18°C° 0.1 mm 1 m/s 762 mmHg 75%
    18:00 +15°C° 0.1 mm 1 m/s 762 mmHg 79%
    19:00 +14°C° 0.1 mm 2 m/s 763 mmHg 83%
    20:00 +12°C° 0 mm 3 m/s 763 mmHg 83%
    21:00 +12°C° 0 mm 4 m/s 763 mmHg 83%
    22:00 +12°C° 0 mm 5 m/s 763 mmHg 82%
    23:00 +10°C° 0 mm 5 m/s 763 mmHg 83%

    Après-demain, 19 Juin, Mercredi

    Heure Température Précipitation Vent Pression Humidité
    00:00 +10°C° 0 mm 5 m/s 763 mmHg 83%
    01:00 +9°C° 0 mm 5 m/s 763 mmHg 84%
    02:00 +8°C° 0 mm 5 m/s 763 mmHg 84%
    03:00 +8°C° 0 mm 4 m/s 763 mmHg 84%
    04:00 +7°C° 0 mm 4 m/s 763 mmHg 83%
    05:00 +7°C° 0 mm 4 m/s 764 mmHg 83%
    06:00 +6°C° 0 mm 4 m/s 764 mmHg 84%
    07:00 +6°C° 0 mm 4 m/s 765 mmHg 84%
    08:00 +8°C° 0.1 mm 4 m/s 765 mmHg 78%
    09:00 +11°C° 0.1 mm 4 m/s 765 mmHg 72%
    10:00 +13°C° 0.1 mm 5 m/s 765 mmHg 67%
    11:00 +14°C° 0.2 mm 5 m/s 765 mmHg 67%
    12:00 +14°C° 0.2 mm 5 m/s 765 mmHg 67%
    13:00 +15°C° 0.2 mm 6 m/s 764 mmHg 67%
    14:00 +15°C° 0.2 mm 6 m/s 765 mmHg 70%
    15:00 +14°C° 0.2 mm 6 m/s 765 mmHg 72%
    16:00 +14°C° 0.2 mm 6 m/s 765 mmHg 75%
    17:00 +13°C° 0.3 mm 6 m/s 765 mmHg 78%
    18:00 +12°C° 0.3 mm 5 m/s 766 mmHg 81%
    19:00 +10°C° 0.3 mm 5 m/s 766 mmHg 84%
    20:00 +10°C° 0.2 mm 5 m/s 767 mmHg 83%
    21:00 +11°C° 0.2 mm 4 m/s 767 mmHg 82%
    22:00 +11°C° 0.2 mm 4 m/s 767 mmHg 81%
    23:00 +11°C° 0.1 mm 4 m/s 767 mmHg 81%

    20 Juin, Jeudi

    Heure Température Précipitation Vent Pression Humidité
    00:00 +11°C° 0.1 mm 3 m/s 767 mmHg 81%
    01:00 +11°C° 0.1 mm 3 m/s 767 mmHg 80%
    02:00 +10°C° 0.1 mm 3 m/s 766 mmHg 81%
    03:00 +10°C° 0.1 mm 2 m/s 766 mmHg 81%
    04:00 +9°C° 0.1 mm 2 m/s 766 mmHg 81%
    05:00 +9°C° 0 mm 2 m/s 766 mmHg 83%
    06:00 +8°C° 0 mm 3 m/s 767 mmHg 85%
    07:00 +7°C° 0 mm 3 m/s 767 mmHg 87%
    08:00 +9°C° 0 mm 3 m/s 767 mmHg 81%
    09:00 +11°C° 0 mm 3 m/s 767 mmHg 75%
    10:00 +13°C° 0 mm 3 m/s 766 mmHg 69%
    11:00 +14°C° 0.1 mm 3 m/s 766 mmHg 67%
    12:00 +16°C° 0.1 mm 3 m/s 765 mmHg 65%
    13:00 +17°C° 0.1 mm 3 m/s 765 mmHg 63%
    14:00 +16°C° 0.2 mm 3 m/s 764 mmHg 67%
    15:00 +16°C° 0.2 mm 2 m/s 764 mmHg 72%
    16:00 +15°C° 0.2 mm 2 m/s 764 mmHg 77%
    17:00 +14°C° 0.4 mm 2 m/s 764 mmHg 79%
    18:00 +14°C° 0.4 mm 1 m/s 764 mmHg 82%
    19:00 +13°C° 0.4 mm 1 m/s 765 mmHg 85%
    20:00 +12°C° 0.4 mm 1 m/s 765 mmHg 86%
    21:00 +12°C° 0.4 mm 1 m/s 765 mmHg 88%
    22:00 +11°C° 0.4 mm 1 m/s 764 mmHg 89%
    23:00 +10°C° 0.4 mm 2 m/s 764 mmHg 91%

    21 Juin, Vendredi

    Heure Température Précipitation Vent Pression Humidité
    00:00 +9°C° 0.4 mm 3 m/s 764 mmHg 92%
    01:00 +8°C° 0.4 mm 4 m/s 764 mmHg 93%
    02:00 +8°C° 0.3 mm 5 m/s 764 mmHg 92%
    03:00 +8°C° 0.3 mm 5 m/s 764 mmHg 91%
    04:00 +8°C° 0.3 mm 5 m/s 764 mmHg 89%
    05:00 +7°C° 0.3 mm 5 m/s 764 mmHg 88%
    06:00 +7°C° 0.3 mm 5 m/s 765 mmHg 87%
    07:00 +7°C° 0.3 mm 5 m/s 765 mmHg 86%
    08:00 +8°C° 0.4 mm 6 m/s 765 mmHg 82%
    09:00 +9°C° 0.4 mm 6 m/s 765 mmHg 77%
    10:00 +10°C° 0.4 mm 6 m/s 766 mmHg 72%
    11:00 +11°C° 0.6 mm 7 m/s 765 mmHg 67%
    12:00 +12°C° 0.6 mm 7 m/s 765 mmHg 63%
    13:00 +14°C° 0.6 mm 7 m/s 765 mmHg 58%
    14:00 +12°C° 0.7 mm 7 m/s 765 mmHg 61%
    15:00 +12°C° 0.7 mm 7 m/s 765 mmHg 64%
    16:00 +11°C° 0.7 mm 7 m/s 766 mmHg 67%
    17:00 +11°C° 0.6 mm 7 m/s 766 mmHg 68%
    18:00 +10°C° 0.6 mm 7 m/s 767 mmHg 69%
    19:00 +9°C° 0.6 mm 7 m/s 768 mmHg 71%
    20:00 +9°C° 0.5 mm 7 m/s 768 mmHg 70%
    21:00 +9°C° 0.5 mm 7 m/s 768 mmHg 70%
    22:00 +9°C° 0.5 mm 7 m/s 768 mmHg 70%
    23:00 +9°C° 0.4 mm 7 m/s 768 mmHg 70%

    22 Juin, Samedi

    Heure Température Précipitation Vent Pression Humidité
    00:00 +9°C° 0.4 mm 7 m/s 768 mmHg 69%
    01:00 +9°C° 0.4 mm 7 m/s 768 mmHg 69%
    02:00 +8°C° 0.6 mm 7 m/s 768 mmHg 70%
    03:00 +8°C° 0.6 mm 7 m/s 768 mmHg 71%
    04:00 +6°C° 0.6 mm 7 m/s 768 mmHg 72%
    05:00 +7°C° 0.5 mm 6 m/s 768 mmHg 74%
    06:00 +7°C° 0.5 mm 6 m/s 769 mmHg 76%
    07:00 +7°C° 0.5 mm 6 m/s 769 mmHg 77%
    08:00 +8°C° 0.3 mm 6 m/s 769 mmHg 74%
    09:00 +9°C° 0.3 mm 5 m/s 769 mmHg 72%
    10:00 +10°C° 0.3 mm 5 m/s 770 mmHg 69%
    11:00 +12°C° 0.3 mm 5 m/s 769 mmHg 68%
    12:00 +13°C° 0.3 mm 5 m/s 769 mmHg 67%
    13:00 +15°C° 0.3 mm 5 m/s 768 mmHg 66%
    14:00 +14°C° 0.6 mm 5 m/s 768 mmHg 72%
    15:00 +13°C° 0.6 mm 5 m/s 768 mmHg 78%
    16:00 +12°C° 0.6 mm 5 m/s 768 mmHg 84%
    17:00 +10°C° 0.9 mm 5 m/s 769 mmHg 86%
    18:00 +11°C° 0.9 mm 4 m/s 769 mmHg 89%
    19:00 +10°C° 0.9 mm 4 m/s 769 mmHg 91%
    20:00 +10°C° 1 mm 4 m/s 769 mmHg 91%
    21:00 +10°C° 1 mm 4 m/s 770 mmHg 91%
    22:00 +10°C° 1 mm 4 m/s 770 mmHg 92%
    23:00 +10°C° 1 mm 4 m/s 770 mmHg 93%
    Voir plus